GLD166 SSRS-SWBE

Flight info

Callsign GLD166
Flight time N/A
Altitude 3500
Route 0307S04225W 0323S04212W 0354S04117W
Aircraft C182/M-SDFGIRY/S

Departure

Time 2026-04-24 15:50
Airport Barreirinhas National Airport (SSRS)

Arrival

Time N/A
Airport Walfrido Salmito de Almeida Airport (SWBE)
Time Latitude Longitude Altitude Speed Heading
2026-04-24 15:28 -2.75941 -42.80559 36 ft 0 kts 267°
2026-04-24 15:48 -2.75941 -42.80565 36 ft 3 kts 289°
2026-04-24 15:48 -2.75905 -42.80571 37 ft 14 kts
2026-04-24 15:48 -2.75825 -42.80569 36 ft 0 kts 355°
2026-04-24 15:49 -2.75732 -42.80575 37 ft 26 kts 354°
2026-04-24 15:50 -2.75656 -42.80381 36 ft 54 kts 87°
2026-04-24 15:50 -2.75663 -42.79889 92 ft 81 kts 87°
2026-04-24 15:50 -2.75613 -42.79306 329 ft 84 kts 72°
2026-04-24 15:50 -2.75272 -42.78870 744 ft 82 kts 48°
2026-04-24 15:51 -2.74706 -42.78757 1084 ft 93 kts 338°
2026-04-24 15:51 -2.74408 -42.79331 1438 ft 104 kts 268°
2026-04-24 15:51 -2.74635 -42.80097 1592 ft 123 kts 256°
2026-04-24 15:51 -2.75255 -42.80693 1700 ft 135 kts 192°
2026-04-24 15:52 -2.76183 -42.80568 1838 ft 137 kts 159°
2026-04-24 15:52 -2.76966 -42.80031 1975 ft 136 kts 137°
2026-04-24 15:52 -2.77674 -42.79416 2127 ft 134 kts 137°
2026-04-24 15:52 -2.78384 -42.78821 2281 ft 137 kts 137°
2026-04-24 15:53 -2.79112 -42.78218 2422 ft 134 kts 138°
2026-04-24 15:53 -2.79814 -42.77628 2565 ft 130 kts 137°
2026-04-24 15:53 -2.80505 -42.77049 2710 ft 129 kts 137°
2026-04-24 15:53 -2.81196 -42.76466 2849 ft 130 kts 137°
2026-04-24 15:54 -2.81896 -42.75866 3009 ft 135 kts 137°
2026-04-24 15:54 -2.82603 -42.75261 3146 ft 131 kts 137°
2026-04-24 15:54 -2.83288 -42.74684 3291 ft 129 kts 137°
2026-04-24 15:54 -2.83970 -42.74100 3429 ft 128 kts 137°
2026-04-24 15:55 -2.84634 -42.73531 3569 ft 124 kts 137°
2026-04-24 15:55 -2.85283 -42.72977 3713 ft 122 kts 137°
2026-04-24 15:55 -2.85932 -42.72419 3853 ft 123 kts 137°
2026-04-24 15:55 -2.86576 -42.71869 3997 ft 120 kts 137°
2026-04-24 15:56 -2.87206 -42.71330 4139 ft 118 kts 137°
2026-04-24 15:56 -2.87826 -42.70799 4290 ft 117 kts 136°
2026-04-24 15:56 -2.88444 -42.70269 4429 ft 117 kts 137°
2026-04-24 15:56 -2.89075 -42.69737 4579 ft 120 kts 137°
2026-04-24 15:57 -2.89711 -42.69192 4732 ft 122 kts 137°
2026-04-24 15:57 -2.90362 -42.68627 4872 ft 125 kts 137°
2026-04-24 15:57 -2.91018 -42.68057 5016 ft 125 kts 137°
2026-04-24 15:57 -2.91668 -42.67488 5160 ft 123 kts 137°
2026-04-24 15:58 -2.92313 -42.66929 5300 ft 122 kts 137°
2026-04-24 15:58 -2.92945 -42.66383 5438 ft 121 kts 137°
2026-04-24 15:58 -2.93576 -42.65837 5581 ft 119 kts 137°
2026-04-24 15:58 -2.94196 -42.65304 5730 ft 116 kts 137°
2026-04-24 15:59 -2.94808 -42.64780 5875 ft 115 kts 137°
2026-04-24 15:59 -2.95415 -42.64264 6024 ft 114 kts 137°
2026-04-24 15:59 -2.96016 -42.63755 6163 ft 113 kts 137°
2026-04-24 15:59 -2.96615 -42.63247 6304 ft 112 kts 137°
2026-04-24 16:00 -2.97207 -42.62742 6442 ft 112 kts 137°
2026-04-24 16:00 -2.97799 -42.62240 6582 ft 112 kts 137°
2026-04-24 16:00 -2.98395 -42.61737 6712 ft 112 kts 137°
2026-04-24 16:00 -2.98979 -42.61244 6849 ft 109 kts 137°
2026-04-24 16:01 -2.99555 -42.60760 6987 ft 108 kts 137°
2026-04-24 16:01 -3.00143 -42.60265 6968 ft 121 kts 137°
2026-04-24 16:01 -3.00895 -42.59616 6289 ft 161 kts 137°
2026-04-24 16:01 -3.01772 -42.58848 5562 ft 175 kts 137°
2026-04-24 16:02 -3.02711 -42.58021 4816 ft 182 kts 136°
2026-04-24 16:02 -3.03672 -42.57179 4058 ft 185 kts 137°
2026-04-24 16:02 -3.04639 -42.56331 3417 ft 181 kts 137°
2026-04-24 16:02 -3.05517 -42.55557 3407 ft 157 kts 137°
2026-04-24 16:03 -3.06318 -42.54868 3400 ft 148 kts 137°
2026-04-24 16:03 -3.07084 -42.54208 3405 ft 143 kts 136°
2026-04-24 16:03 -3.07837 -42.53561 3390 ft 142 kts 137°
2026-04-24 16:03 -3.08583 -42.52917 3388 ft 142 kts 137°
2026-04-24 16:04 -3.09333 -42.52265 3394 ft 143 kts 137°
2026-04-24 16:04 -3.10091 -42.51601 3393 ft 146 kts 137°
2026-04-24 16:04 -3.10855 -42.50930 3392 ft 145 kts 136°
2026-04-24 16:04 -3.11620 -42.50271 3396 ft 145 kts 137°
2026-04-24 16:05 -3.13148 -42.48951 3392 ft 144 kts 136°
2026-04-24 16:05 -3.13899 -42.48309 3389 ft 144 kts 137°
2026-04-24 16:06 -3.15416 -42.47005 3389 ft 145 kts 136°
2026-04-24 16:06 -3.16175 -42.46346 3391 ft 144 kts 136°
2026-04-24 16:06 -3.17690 -42.45040 3392 ft 143 kts 136°
2026-04-24 16:07 -3.18441 -42.44390 3388 ft 142 kts 136°
2026-04-24 16:07 -3.19189 -42.43744 3389 ft 142 kts 137°
2026-04-24 16:07 -3.20695 -42.42437 3391 ft 143 kts 136°
2026-04-24 16:08 -3.21448 -42.41786 3392 ft 143 kts 137°
2026-04-24 16:08 -3.22950 -42.40476 3393 ft 144 kts 137°
2026-04-24 16:09 -3.24452 -42.39172 3389 ft 143 kts 137°
2026-04-24 16:09 -3.25200 -42.38523 3388 ft 142 kts 137°
2026-04-24 16:09 -3.25697 -42.38094 3394 ft 143 kts 136°
2026-04-24 16:09 -3.26707 -42.37214 3395 ft 145 kts 136°
2026-04-24 16:10 -3.28966 -42.35235 3394 ft 143 kts 136°
2026-04-24 16:11 -3.30462 -42.33929 3397 ft 143 kts 137°
2026-04-24 16:11 -3.31220 -42.33266 3391 ft 145 kts 136°
2026-04-24 16:11 -3.31977 -42.32603 3390 ft 145 kts 137°
2026-04-24 16:12 -3.33477 -42.31286 3394 ft 144 kts 136°
2026-04-24 16:12 -3.34232 -42.30623 3392 ft 144 kts 136°
2026-04-24 16:12 -3.35749 -42.29285 3392 ft 145 kts 136°
2026-04-24 16:13 -3.36504 -42.28618 3392 ft 145 kts 136°
2026-04-24 16:13 -3.38033 -42.27270 3395 ft 147 kts 136°
2026-04-24 16:14 -3.39554 -42.25929 3397 ft 146 kts 136°
2026-04-24 16:14 -3.40318 -42.25253 3392 ft 146 kts 136°
2026-04-24 16:14 -3.41843 -42.23900 3394 ft 147 kts 136°
2026-04-24 16:15 -3.42344 -42.23452 3389 ft 146 kts 136°
2026-04-24 16:15 -3.44118 -42.21874 3394 ft 146 kts 136°
2026-04-24 16:16 -3.45623 -42.20528 3393 ft 145 kts 136°
2026-04-24 16:16 -3.46362 -42.19870 3389 ft 144 kts 136°
2026-04-24 16:17 -3.48567 -42.17896 3382 ft 140 kts 136°
2026-04-24 16:17 -3.50021 -42.16581 3391 ft 141 kts 136°
2026-04-24 16:18 -3.51469 -42.15271 3384 ft 139 kts 136°
2026-04-24 16:18 -3.52895 -42.13967 3387 ft 139 kts 136°
2026-04-24 16:18 -3.53610 -42.13313 3388 ft 140 kts 136°
2026-04-24 16:19 -3.54821 -42.12209 3381 ft 141 kts 136°
2026-04-24 16:19 -3.55533 -42.11562 3383 ft 140 kts 136°
2026-04-24 16:20 -3.56968 -42.10263 3384 ft 139 kts 136°
2026-04-24 16:20 -3.58411 -42.08957 3388 ft 140 kts 136°
2026-04-24 16:20 -3.59137 -42.08298 3385 ft 141 kts 136°
2026-04-24 16:21 -3.60590 -42.06978 3383 ft 141 kts 136°
2026-04-24 16:21 -3.61322 -42.06312 3391 ft 143 kts 136°
2026-04-24 16:21 -3.62061 -42.05639 3393 ft 144 kts 136°
2026-04-24 16:22 -3.62802 -42.04964 3394 ft 144 kts 136°
2026-04-24 16:22 -3.64292 -42.03601 3393 ft 145 kts 136°
2026-04-24 16:22 -3.65023 -42.02934 3397 ft 144 kts 136°
2026-04-24 16:23 -3.65764 -42.02256 3394 ft 144 kts 136°
2026-04-24 16:23 -3.66508 -42.01575 3396 ft 146 kts 136°
2026-04-24 16:23 -3.67253 -42.00889 3396 ft 146 kts 136°
2026-04-24 16:24 -3.68751 -41.99518 3393 ft 145 kts 136°
2026-04-24 16:24 -3.69494 -41.98838 3396 ft 145 kts 136°
2026-04-24 16:24 -3.70242 -41.98155 3395 ft 146 kts 136°
2026-04-24 16:24 -3.70990 -41.97473 3397 ft 145 kts 136°
2026-04-24 16:25 -3.71733 -41.96796 3397 ft 144 kts 136°
2026-04-24 16:25 -3.72478 -41.96120 3395 ft 145 kts 136°
2026-04-24 16:25 -3.73226 -41.95441 3394 ft 144 kts 136°
2026-04-24 16:26 -3.74712 -41.94096 3396 ft 144 kts 136°
2026-04-24 16:26 -3.75457 -41.93422 3396 ft 144 kts 136°
2026-04-24 16:26 -3.76936 -41.92084 3396 ft 144 kts 136°
2026-04-24 16:27 -3.77678 -41.91412 3397 ft 144 kts 136°
2026-04-24 16:27 -3.78421 -41.90735 3393 ft 144 kts 135°
2026-04-24 16:27 -3.79164 -41.90058 3394 ft 144 kts 136°
2026-04-24 16:27 -3.79908 -41.89380 3397 ft 144 kts 136°
2026-04-24 16:28 -3.80653 -41.88700 3396 ft 145 kts 136°
2026-04-24 16:28 -3.81395 -41.88018 3393 ft 144 kts 135°
2026-04-24 16:28 -3.82227 -41.86221 3379 ft 143 kts 111°
2026-04-24 16:29 -3.82598 -41.85297 3375 ft 143 kts 111°
2026-04-24 16:29 -3.82968 -41.84375 3377 ft 142 kts 111°
2026-04-24 16:29 -3.83688 -41.82543 3371 ft 142 kts 111°
2026-04-24 16:30 -3.84412 -41.80710 3372 ft 141 kts 111°
2026-04-24 16:30 -3.84766 -41.79790 3369 ft 141 kts 110°
2026-04-24 16:30 -3.85127 -41.78872 3369 ft 141 kts 111°
2026-04-24 16:31 -3.85486 -41.77956 3373 ft 142 kts 110°
2026-04-24 16:31 -3.85844 -41.77036 3378 ft 142 kts 111°
2026-04-24 16:31 -3.86205 -41.76109 3373 ft 143 kts 111°
2026-04-24 16:31 -3.86569 -41.75181 3375 ft 143 kts 110°
2026-04-24 16:32 -3.86935 -41.74256 3378 ft 143 kts 111°
2026-04-24 16:32 -3.87302 -41.73327 3374 ft 143 kts 110°
2026-04-24 16:32 -3.87668 -41.72413 3376 ft 144 kts 111°
2026-04-24 16:32 -3.88034 -41.71483 3384 ft 143 kts 111°
2026-04-24 16:33 -3.88401 -41.70556 3375 ft 143 kts 110°
2026-04-24 16:33 -3.88761 -41.69634 3375 ft 141 kts 110°
2026-04-24 16:33 -3.89121 -41.68712 3372 ft 142 kts 111°
2026-04-24 16:33 -3.89477 -41.67789 3373 ft 142 kts 110°
2026-04-24 16:34 -3.89830 -41.66865 3375 ft 142 kts 111°
2026-04-24 16:34 -3.90182 -41.65941 3384 ft 142 kts 110°
2026-04-24 16:34 -3.90538 -41.65007 3375 ft 144 kts 111°
2026-04-24 16:34 -3.90885 -41.64086 3377 ft 142 kts 110°
2026-04-24 16:35 -3.91239 -41.63158 3373 ft 142 kts 110°
2026-04-24 16:35 -3.91595 -41.62235 3386 ft 143 kts 110°
2026-04-24 16:35 -3.91953 -41.61300 3376 ft 143 kts 111°
2026-04-24 16:35 -3.92312 -41.60366 3381 ft 144 kts 110°
2026-04-24 16:36 -3.92669 -41.59436 3377 ft 142 kts 110°
2026-04-24 16:36 -3.93020 -41.58514 3377 ft 142 kts 110°
2026-04-24 16:36 -3.93376 -41.57588 3369 ft 142 kts 110°
2026-04-24 16:36 -3.93734 -41.56664 3375 ft 142 kts 110°
2026-04-24 16:37 -3.94091 -41.55741 3381 ft 142 kts 111°
2026-04-24 16:37 -3.94442 -41.54811 3378 ft 142 kts 110°
2026-04-24 16:37 -3.94797 -41.53893 3375 ft 140 kts 110°
2026-04-24 16:37 -3.95142 -41.52984 3377 ft 142 kts 110°
2026-04-24 16:38 -3.95496 -41.52052 3370 ft 142 kts 110°
2026-04-24 16:38 -3.95848 -41.51135 3374 ft 141 kts 110°
2026-04-24 16:38 -3.96203 -41.50216 3377 ft 142 kts 110°
2026-04-24 16:38 -3.96559 -41.49289 3375 ft 143 kts 110°
2026-04-24 16:39 -3.96914 -41.48360 3379 ft 143 kts 110°
2026-04-24 16:39 -3.97271 -41.47434 3376 ft 142 kts 111°
2026-04-24 16:39 -3.97624 -41.46508 3380 ft 142 kts 110°
2026-04-24 16:39 -3.97984 -41.45580 3375 ft 143 kts 110°
2026-04-24 16:40 -3.98339 -41.44669 3380 ft 142 kts 110°
2026-04-24 16:40 -3.98698 -41.43745 3376 ft 142 kts 111°
2026-04-24 16:40 -3.99053 -41.42822 3384 ft 143 kts 110°
2026-04-24 16:40 -3.99412 -41.41897 3380 ft 142 kts 111°
2026-04-24 16:41 -3.99766 -41.40971 3381 ft 142 kts 110°
2026-04-24 16:41 -4.00120 -41.40052 3377 ft 141 kts 110°
2026-04-24 16:41 -4.00472 -41.39134 3379 ft 141 kts 111°
2026-04-24 16:41 -4.00825 -41.38212 3382 ft 142 kts 110°
2026-04-24 16:42 -4.01176 -41.37304 3384 ft 142 kts 110°
2026-04-24 16:42 -4.01528 -41.36375 3382 ft 142 kts 110°
2026-04-24 16:42 -4.01878 -41.35444 3383 ft 143 kts 111°
2026-04-24 16:42 -4.02229 -41.34519 3380 ft 141 kts 110°
2026-04-24 16:43 -4.02573 -41.33603 3389 ft 141 kts 109°
2026-04-24 16:43 -4.02920 -41.32688 3386 ft 140 kts 111°
2026-04-24 16:43 -4.03265 -41.31774 3387 ft 141 kts 110°
2026-04-24 16:43 -4.03615 -41.30853 3388 ft 142 kts 111°
2026-04-24 16:44 -4.03967 -41.29928 3392 ft 143 kts 110°
2026-04-24 16:44 -4.04322 -41.29006 3390 ft 141 kts 110°
2026-04-24 16:44 -4.04676 -41.28081 3390 ft 142 kts 110°
2026-04-24 16:44 -4.05028 -41.27173 3392 ft 142 kts 110°
2026-04-24 16:45 -4.05386 -41.26253 3393 ft 141 kts 110°
2026-04-24 16:45 -4.05750 -41.25335 3396 ft 142 kts 110°
2026-04-24 16:45 -4.06113 -41.24413 3397 ft 142 kts 110°
2026-04-24 16:45 -4.06477 -41.23492 3396 ft 142 kts 109°
2026-04-24 16:46 -4.06839 -41.22572 3393 ft 142 kts 110°
2026-04-24 16:46 -4.07194 -41.21657 3403 ft 141 kts 110°
2026-04-24 16:46 -4.07547 -41.20730 3407 ft 143 kts 110°
2026-04-24 16:46 -4.07904 -41.19803 3398 ft 142 kts 110°
2026-04-24 16:47 -4.08261 -41.18886 3398 ft 141 kts 110°
2026-04-24 16:47 -4.08624 -41.17971 3399 ft 142 kts 110°
2026-04-24 16:47 -4.08977 -41.17045 3399 ft 142 kts 110°
2026-04-24 16:47 -4.09337 -41.16130 3410 ft 142 kts 110°
2026-04-24 16:48 -4.09706 -41.15220 3414 ft 144 kts 110°
2026-04-24 16:48 -4.09993 -41.14266 3388 ft 143 kts 93°
2026-04-24 16:48 -4.09868 -41.13307 3462 ft 135 kts 79°
2026-04-24 16:48 -4.09706 -41.12396 3516 ft 133 kts 81°
2026-04-24 16:49 -4.09542 -41.11481 3516 ft 134 kts 79°
2026-04-24 16:49 -4.09390 -41.10561 3515 ft 133 kts 82°
2026-04-24 16:49 -4.09239 -41.09646 3503 ft 133 kts 80°
2026-04-24 16:49 -4.09107 -41.08764 3576 ft 120 kts 82°
2026-04-24 16:50 -4.09004 -41.08207 3642 ft 126 kts 80°
2026-04-24 16:50 -4.08811 -41.07070 3752 ft 117 kts 81°
2026-04-24 16:50 -4.08661 -41.06285 3912 ft 119 kts 81°
2026-04-24 16:50 -4.08499 -41.05446 3917 ft 126 kts 82°
2026-04-24 16:51 -4.08332 -41.04573 3920 ft 129 kts 81°
2026-04-24 16:51 -4.08162 -41.03685 3930 ft 130 kts 81°
2026-04-24 16:51 -4.08003 -41.02781 3931 ft 135 kts 81°
2026-04-24 16:51 -4.07833 -41.01841 3935 ft 139 kts 82°
2026-04-24 16:52 -4.07662 -41.00879 3942 ft 141 kts 80°
2026-04-24 16:52 -4.07495 -40.99917 3945 ft 139 kts 82°
2026-04-24 16:52 -4.07307 -40.98954 3940 ft 141 kts 79°
2026-04-24 16:52 -4.07131 -40.97995 3943 ft 139 kts 81°
2026-04-24 16:53 -4.06962 -40.97029 3949 ft 142 kts 81°
2026-04-24 16:53 -4.06790 -40.96066 3940 ft 139 kts 82°
2026-04-24 16:53 -4.06592 -40.95119 3948 ft 141 kts 81°
2026-04-24 16:53 -4.06400 -40.94161 3940 ft 139 kts 81°
2026-04-24 16:54 -4.06225 -40.93229 3941 ft 135 kts 81°
2026-04-24 16:54 -4.06063 -40.92307 3939 ft 134 kts 80°
2026-04-24 16:54 -4.05919 -40.91390 3936 ft 132 kts 82°
2026-04-24 16:54 -4.05756 -40.90479 3936 ft 133 kts 81°
2026-04-24 16:55 -4.05612 -40.89566 3938 ft 136 kts 82°
2026-04-24 16:55 -4.05439 -40.88628 3932 ft 137 kts 81°
2026-04-24 16:55 -4.05274 -40.87703 3941 ft 134 kts 81°
2026-04-24 16:55 -4.05105 -40.86767 3936 ft 139 kts 81°
2026-04-24 16:56 -4.04931 -40.85813 3932 ft 139 kts 81°
2026-04-24 16:56 -4.04753 -40.84870 3934 ft 137 kts 81°
2026-04-24 16:56 -4.04575 -40.83938 3939 ft 136 kts 81°
2026-04-24 16:56 -4.04405 -40.83006 3947 ft 138 kts 81°
2026-04-24 16:57 -4.04235 -40.82044 3940 ft 141 kts 82°
2026-04-24 16:57 -4.04059 -40.81094 3942 ft 140 kts 81°
2026-04-24 16:57 -4.03891 -40.80129 3939 ft 140 kts 82°
2026-04-24 16:57 -4.03708 -40.79179 3937 ft 138 kts 80°
2026-04-24 16:58 -4.03534 -40.78240 3930 ft 136 kts 81°
2026-04-24 16:58 -4.03360 -40.77311 3936 ft 135 kts 81°
2026-04-24 16:58 -4.03184 -40.76389 3931 ft 135 kts 81°
2026-04-24 16:58 -4.03008 -40.75456 3927 ft 136 kts 81°
2026-04-24 16:59 -4.02829 -40.74525 3934 ft 136 kts 81°
2026-04-24 16:59 -4.02646 -40.73593 3929 ft 136 kts 81°
2026-04-24 16:59 -4.02267 -40.71743 3924 ft 134 kts 80°
2026-04-24 17:00 -4.02082 -40.70823 3923 ft 135 kts 81°
2026-04-24 17:00 -4.01705 -40.68967 3935 ft 137 kts 82°
2026-04-24 17:00 -4.01512 -40.68018 3922 ft 139 kts 81°
2026-04-24 17:01 -4.01124 -40.66117 3931 ft 140 kts 81°
2026-04-24 17:01 -4.00925 -40.65144 3924 ft 144 kts 77°
2026-04-24 17:02 -3.99534 -40.64374 3830 ft 159 kts 351°
2026-04-24 17:02 -3.98592 -40.65433 3756 ft 162 kts 284°
2026-04-24 17:02 -3.98394 -40.66539 3768 ft 161 kts 280°
2026-04-24 17:02 -3.98184 -40.67635 3768 ft 160 kts 281°
2026-04-24 17:03 -3.97767 -40.69831 3767 ft 161 kts 280°
2026-04-24 17:03 -3.97555 -40.70922 3774 ft 159 kts 280°
2026-04-24 17:03 -3.97337 -40.72008 3768 ft 159 kts 281°
2026-04-24 17:04 -3.97125 -40.73097 3773 ft 159 kts 280°
2026-04-24 17:04 -3.96705 -40.75275 3771 ft 159 kts 279°
2026-04-24 17:04 -3.96646 -40.76350 3751 ft 157 kts 261°
2026-04-24 17:05 -3.96844 -40.77429 3751 ft 158 kts 257°
2026-04-24 17:05 -3.97026 -40.78514 3754 ft 157 kts 259°
2026-04-24 17:05 -3.97386 -40.80674 3753 ft 158 kts 258°
2026-04-24 17:06 -3.97579 -40.81759 3753 ft 158 kts 258°
2026-04-24 17:06 -3.97973 -40.83959 3756 ft 162 kts 260°
2026-04-24 17:06 -3.98181 -40.85050 3755 ft 158 kts 257°
2026-04-24 17:07 -3.98308 -40.85768 3756 ft 158 kts 260°
2026-04-24 17:07 -3.98591 -40.86835 3756 ft 159 kts 250°
2026-04-24 17:07 -3.99207 -40.88951 3747 ft 158 kts 253°
2026-04-24 17:08 -3.99818 -40.91070 3755 ft 157 kts 252°
2026-04-24 17:08 -4.00121 -40.92124 3762 ft 159 kts 252°
2026-04-24 17:08 -4.00429 -40.93197 3754 ft 160 kts 252°
2026-04-24 17:09 -4.01787 -40.94591 3664 ft 149 kts 176°
2026-04-24 17:09 -4.03800 -40.94556 3675 ft 145 kts 174°
2026-04-24 17:10 -4.04776 -40.94385 3634 ft 141 kts 144°
2026-04-24 17:10 -4.04504 -40.92027 3527 ft 110 kts 74°
2026-04-24 17:11 -4.04303 -40.89766 2850 ft 95 kts 89°
2026-04-24 17:12 -4.04327 -40.88689 2854 ft 0 kts 306°